W8MAL Weather Reports


time (UTC)temp
C
wind
direction
speed
KPH
gust
KPH
rain 1hr
cm
rain 24hr
cm
rain mn
cm
humidity
%
barometer
mb
20260903043652 25 189 0.0 0.0 0.00 0.00 0.00 90 1013.3
20260903043150 26 189 0.0 0.0 0.00 0.00 0.00 89 1013.3
20260903042650 26 189 0.0 0.0 0.00 0.00 0.00 89 1013.3
20260903042145 26 189 0.0 0.0 0.00 0.00 0.00 89 1013.3
20260903041642 26 189 0.0 0.0 0.00 0.00 0.00 88 1013.3
20260903041132 26 189 0.0 0.0 0.00 0.00 0.00 88 1013.0
20260903040630 26 189 0.0 0.0 0.00 0.00 0.00 87 1013.0
20260903040127 26 189 0.0 0.0 0.00 0.00 0.00 87 1013.0
20260903035622 26 189 0.0 0.0 0.00 0.00 0.00 87 1013.0
20260903035117 26 189 3.2 3.2 0.00 0.00 0.00 87 1013.0
20260903034612 26 189 3.2 3.2 0.00 0.00 0.00 87 1013.0
20260903034107 26 189 1.6 1.6 0.00 0.00 0.00 86 1012.3
20260903033602 26 189 3.2 3.2 0.00 0.00 0.00 86 1012.3
20260903033057 27 189 3.2 3.2 0.00 0.00 0.00 86 1012.3
20260903032552 26 189 6.4 6.4 0.00 0.00 0.00 86 1012.3
20260903032048 26 189 3.2 3.2 0.00 0.00 0.00 86 1012.3
20260903031548 26 189 3.2 3.2 0.00 0.00 0.00 87 1012.3
20260903031043 26 189 6.4 6.4 0.00 0.00 0.00 88 1012.3
20260903030538 26 189 6.4 6.4 0.00 0.00 0.00 89 1012.3
20260903030034 26 189 4.8 4.8 0.00 0.00 0.00 88 1012.3
20260903025529 26 189 6.4 6.4 0.00 0.00 0.00 88 1012.7
20260903025025 26 189 3.2 3.2 0.00 0.00 0.00 88 1012.7
20260903024525 26 189 4.8 4.8 0.00 0.00 0.00 89 1013.0
20260903024019 26 189 4.8 4.8 0.00 0.00 0.00 89 1013.0
20260903023515 26 189 3.2 3.2 0.00 0.00 0.00 89 1013.0
20260903023010 26 189 4.8 4.8 0.00 0.00 0.00 89 1013.0
20260903022509 26 189 3.2 3.2 0.00 0.00 0.00 88 1013.0
20260903022008 26 189 3.2 3.2 0.00 0.00 0.00 88 1013.0
20260903021503 26 189 3.2 3.2 0.00 0.00 0.00 87 1013.0
20260903020958 26 189 3.2 3.2 0.00 0.00 0.00 86 1013.0
20260903020454 26 189 3.2 3.2 0.00 0.00 0.00 86 1013.0
20260903015948 26 189 3.2 3.2 0.00 0.00 0.00 86 1013.0
20260903015444 26 189 3.2 3.2 0.00 0.00 0.00 86 1013.0
20260903014939 26 189 1.6 1.6 0.00 0.00 0.00 86 1013.0
20260903014438 26 189 4.8 4.8 0.00 0.00 0.00 86 1013.0
20260903013933 26 189 3.2 3.2 0.00 0.00 0.00 86 1013.0
20260903013433 26 189 3.2 3.2 0.00 0.00 0.00 86 1013.0
20260903012932 26 189 0.0 0.0 0.00 0.00 0.00 86 1013.0
20260903012431 26 189 0.0 0.0 0.00 0.00 0.00 86 1013.0
20260903011930 27 189 0.0 0.0 0.00 0.00 0.00 84 1013.0
20260903011425 27 189 0.0 0.0 0.00 0.00 0.00 83 1012.7
20260903010920 27 189 0.0 0.0 0.00 0.00 0.00 83 1012.7
20260903010416 27 189 0.0 0.0 0.00 0.00 0.00 83 1012.7
20260903005913 27 189 0.0 0.0 0.00 0.00 0.00 83 1013.0
20260903005409 27 189 0.0 0.0 0.00 0.00 0.00 83 1013.0
20260903004905 27 189 0.0 0.0 0.00 0.00 0.00 82 1013.0
20260903004401 27 189 0.0 0.0 0.00 0.00 0.00 81 1012.7
20260903003855 27 189 0.0 0.0 0.00 0.00 0.00 81 1012.7
20260903003350 28 189 0.0 0.0 0.00 0.00 0.00 81 1012.7
20260903002850 28 189 0.0 0.0 0.00 0.00 0.00 79 1012.7
20260903002345 28 189 0.0 0.0 0.00 0.00 0.00 78 1012.7
20260903001840 28 189 0.0 0.0 0.00 0.00 0.00 78 1012.7
20260903001335 28 190 0.0 0.0 0.00 0.00 0.00 77 1013.0
20260903000835 28 190 1.6 1.6 0.00 0.00 0.00 77 1013.0
20260903000332 29 189 3.2 3.2 0.00 0.00 0.00 76 1013.0
20260902235828 29 190 1.6 1.6 0.00 0.00 0.00 75 1013.0
20260902235323 29 190 3.2 3.2 0.00 0.00 0.00 74 1013.0
20260902234823 30 190 0.0 0.0 0.00 0.00 0.00 74 1013.0
20260902234323 30 190 0.0 0.0 0.00 0.00 0.00 73 1012.7
20260902233822 30 190 3.2 3.2 0.00 0.00 0.00 72 1012.7
20260902233321 30 190 4.8 6.4 0.00 0.00 0.00 71 1012.7
20260902232820 30 190 4.8 4.8 0.00 0.00 0.00 71 1012.7
20260902232315 30 190 3.2 3.2 0.00 0.00 0.00 70 1012.7
20260902231815 30 190 3.2 3.2 0.00 0.00 0.00 70 1012.7
20260902231309 31 190 0.0 0.0 0.00 0.00 0.00 70 1013.0
20260902230805 31 190 3.2 3.2 0.00 0.00 0.00 69 1013.0
20260902230304 31 190 3.2 3.2 0.00 0.00 0.00 69 1013.0
20260902225758 31 190 0.0 0.0 0.00 0.00 0.00 70 1012.7
20260902225254 31 190 3.2 3.2 0.00 0.00 0.00 69 1012.7
20260902224752 31 190 3.2 3.2 0.00 0.00 0.00 69 1012.7
20260902224247 31 190 0.0 0.0 0.00 0.00 0.00 68 1012.7
20260902223744 31 190 3.2 3.2 0.00 0.00 0.00 68 1012.7
20260902223243 31 190 3.2 3.2 0.00 0.00 0.00 66 1012.7
20260902222737 31 190 3.2 3.2 0.00 0.00 0.00 66 1013.0
20260902222236 32 190 3.2 3.2 0.00 0.00 0.00 64 1013.0
20260902221731 32 190 4.8 4.8 0.00 0.00 0.00 63 1013.0
20260902221230 32 190 1.6 1.6 0.00 0.00 0.00 62 1012.7
20260902220726 32 190 4.8 4.8 0.00 0.00 0.00 62 1012.7
20260902220225 32 190 6.4 6.4 0.00 0.00 0.00 63 1012.7
20260902215721 32 192 3.2 3.2 0.00 0.00 0.00 62 1012.7
20260902215216 32 192 3.2 3.2 0.00 0.00 0.00 61 1012.7
20260902214712 33 192 4.8 4.8 0.00 0.00 0.00 59 1012.7
20260902214211 33 192 3.2 3.2 0.00 0.00 0.00 61 1013.0
20260902213707 33 192 4.8 4.8 0.00 0.00 0.00 59 1013.0
20260902213201 33 192 6.4 6.4 0.00 0.00 0.00 58 1013.0
20260902212656 33 192 3.2 3.2 0.00 0.00 0.00 59 1012.7
20260902212152 33 192 4.8 4.8 0.00 0.00 0.00 61 1012.7
20260902211648 33 192 6.4 8.0 0.00 0.00 0.00 59 1012.7
20260902211148 33 192 3.2 3.2 0.00 0.00 0.00 61 1013.0
20260902210648 34 192 4.8 4.8 0.00 0.00 0.00 59 1013.0
20260902210143 34 192 9.7 9.7 0.00 0.00 0.00 58 1013.0
20260902205642 34 192 3.2 3.2 0.00 0.00 0.00 59 1013.0
20260902205137 34 192 0.0 0.0 0.00 0.00 0.00 60 1013.0
20260902204632 35 192 3.2 3.2 0.00 0.00 0.00 59 1013.3
20260902204126 35 192 0.0 0.0 0.00 0.00 0.00 57 1013.3
20260902203622 35 192 4.8 6.4 0.00 0.00 0.00 58 1013.3
20260902203122 35 192 3.2 3.2 0.00 0.00 0.00 57 1013.3
20260902202618 34 192 4.8 4.8 0.00 0.00 0.00 57 1013.3
20260902202114 34 192 3.2 3.2 0.00 0.00 0.00 59 1013.3
20260902201610 35 192 4.8 6.4 0.00 0.00 0.00 58 1013.3
20260902201108 35 192 3.2 3.2 0.00 0.00 0.00 57 1013.3
20260902200604 35 192 3.2 3.2 0.00 0.00 0.00 58 1013.3
20260902200100 34 192 4.8 4.8 0.00 0.00 0.00 58 1013.3
20260902195555 35 192 3.2 3.2 0.00 0.00 0.00 60 1013.7
20260902195054 35 192 6.4 6.4 0.00 0.00 0.00 59 1013.7
20260902194554 35 192 6.4 6.4 0.00 0.00 0.00 57 1013.7
20260902194049 35 192 3.2 3.2 0.00 0.00 0.00 58 1014.0
20260902193546 34 192 4.8 4.8 0.00 0.00 0.00 58 1014.0
20260902193044 34 192 4.8 4.8 0.00 0.00 0.00 57 1014.0
20260902192543 35 192 6.4 6.4 0.00 0.00 0.00 58 1013.7
20260902192042 35 192 4.8 4.8 0.00 0.00 0.00 59 1013.7
20260902191538 35 192 6.4 6.4 0.00 0.00 0.00 58 1013.7
20260902191032 35 192 3.2 3.2 0.00 0.00 0.00 57 1014.0
20260902190528 35 192 6.4 6.4 0.00 0.00 0.00 56 1014.0
20260902190024 34 192 4.8 4.8 0.00 0.00 0.00 58 1014.0
20260902185519 33 192 0.0 0.0 0.00 0.00 0.00 61 1014.0
20260902185015 34 192 3.2 3.2 0.00 0.00 0.00 58 1014.0
20260902184509 33 192 3.2 3.2 0.00 0.00 0.00 59 1014.0
20260902184005 33 192 3.2 3.2 0.00 0.00 0.00 60 1014.4
20260902183501 33 192 3.2 3.2 0.00 0.00 0.00 62 1014.4
20260902182957 33 192 3.2 3.2 0.00 0.00 0.00 64 1014.7
20260902182453 33 192 4.8 4.8 0.00 0.00 0.00 64 1014.7
20260902181949 33 192 3.2 3.2 0.00 0.00 0.00 66 1014.7
20260902181445 32 192 3.2 3.2 0.00 0.00 0.00 64 1014.7
20260902180944 33 192 4.8 4.8 0.00 0.00 0.00 63 1014.7
20260902180439 33 192 3.2 3.2 0.00 0.00 0.00 62 1014.7
20260902175935 33 192 1.6 1.6 0.00 0.00 0.00 64 1015.0
20260902175430 33 192 4.8 4.8 0.00 0.00 0.00 65 1015.0
20260902174926 33 192 3.2 3.2 0.00 0.00 0.00 63 1015.0
20260902174422 32 192 3.2 3.2 0.00 0.00 0.00 64 1014.7
20260902173918 32 192 3.2 3.2 0.00 0.00 0.00 68 1014.7
20260902173417 33 192 6.4 6.4 0.00 0.00 0.00 66 1014.7
20260902172912 33 192 3.2 3.2 0.00 0.00 0.00 62 1014.7
20260902172411 33 192 4.8 4.8 0.00 0.00 0.00 64 1014.7
20260902171907 33 192 3.2 3.2 0.00 0.00 0.00 64 1014.7
20260902171402 33 192 3.2 3.2 0.00 0.00 0.00 64 1015.0
20260902170858 32 192 0.0 0.0 0.00 0.00 0.00 65 1015.0
20260902170358 32 192 3.2 3.2 0.00 0.00 0.00 67 1015.0
20260902165854 33 192 4.8 4.8 0.00 0.00 0.00 65 1015.4
20260902165353 33 192 6.4 6.4 0.00 0.00 0.00 66 1015.4
20260902164848 32 192 4.8 4.8 0.00 0.00 0.00 68 1015.4
20260902164343 31 192 4.8 4.8 0.00 0.00 0.00 67 1015.4
20260902163842 32 192 3.2 3.2 0.00 0.00 0.00 67 1015.4
20260902163337 31 190 0.0 0.0 0.00 0.00 0.00 70 1015.4
20260902162835 31 192 0.0 0.0 0.00 0.00 0.00 69 1015.4
20260902162331 31 192 1.6 1.6 0.00 0.00 0.00 68 1015.4
20260902161830 31 192 0.0 0.0 0.00 0.00 0.00 69 1015.4
20260902161326 32 192 4.8 6.4 0.00 0.00 0.00 68 1015.4
20260902160822 31 192 0.0 0.0 0.00 0.00 0.00 70 1015.4
20260902160317 31 192 3.2 3.2 0.00 0.00 0.00 69 1015.4
20260902155815 31 192 4.8 4.8 0.00 0.00 0.00 69 1015.4
20260902155314 32 192 4.8 4.8 0.00 0.00 0.00 68 1015.4
20260902154809 31 192 3.2 3.2 0.00 0.00 0.00 68 1015.4
20260902154305 31 190 4.8 4.8 0.00 0.00 0.00 71 1015.0
20260902153804 30 192 0.0 0.0 0.00 0.00 0.00 69 1015.0
20260902153258 31 192 3.2 3.2 0.00 0.00 0.00 70 1015.0
20260902152754 32 192 1.6 1.6 0.00 0.00 0.00 70 1015.0
20260902152250 31 192 1.6 1.6 0.00 0.00 0.00 68 1015.0
20260902151750 31 192 1.6 1.6 0.00 0.00 0.00 71 1015.0
20260902151245 30 192 1.6 1.6 0.00 0.00 0.00 71 1015.4
20260902150740 30 192 3.2 3.2 0.00 0.00 0.00 72 1015.4
20260902150236 31 192 3.2 3.2 0.00 0.00 0.00 71 1015.4
20260902145735 31 192 3.2 3.2 0.00 0.00 0.00 70 1015.0
20260902145231 30 192 4.8 4.8 0.00 0.00 0.00 71 1015.0
20260902144726 30 192 0.0 0.0 0.00 0.00 0.00 71 1015.0
20260902144222 31 192 6.4 6.4 0.00 0.00 0.00 70 1015.0
20260902143717 30 192 1.6 1.6 0.00 0.00 0.00 71 1015.0
20260902143212 30 190 3.2 3.2 0.00 0.00 0.00 72 1015.0
20260902142708 30 192 1.6 1.6 0.00 0.00 0.00 73 1014.7
20260902142203 30 192 0.0 0.0 0.00 0.00 0.00 73 1014.7
20260902141703 30 190 0.0 0.0 0.00 0.00 0.00 74 1014.7
20260902141159 30 189 3.2 3.2 0.00 0.00 0.00 77 1015.0
20260902140654 29 189 3.2 3.2 0.00 0.00 0.00 80 1015.0
20260902140155 29 189 4.8 4.8 0.00 0.00 0.00 78 1015.0
20260902135653 28 189 3.2 3.2 0.00 0.00 0.00 78 1015.4
20260902135149 28 189 3.2 3.2 0.00 0.00 0.00 80 1015.4
20260902134644 27 189 0.0 0.0 0.00 0.00 0.00 84 1015.4
20260902134144 26 189 0.0 0.0 0.00 0.00 0.00 86 1015.0
20260902133640 26 189 0.0 0.0 0.00 0.00 0.00 87 1015.0
20260902133139 26 189 0.0 0.0 0.00 0.00 0.00 90 1015.0
20260902132635 26 189 0.0 0.0 0.00 0.00 0.00 92 1015.0
20260902132130 25 189 0.0 0.0 0.00 0.00 0.00 91 1015.0
20260902131626 25 189 0.0 0.0 0.00 0.00 0.00 92 1015.0
20260902131121 25 189 0.0 0.0 0.00 0.00 0.00 93 1015.0
20260902130617 25 189 0.0 0.0 0.00 0.00 0.00 93 1015.0
20260902130113 25 189 0.0 0.0 0.00 0.00 0.00 93 1015.0
20260902125608 25 189 3.2 3.2 0.00 0.00 0.00 94 1015.0
20260902125103 24 189 0.0 0.0 0.00 0.00 0.00 94 1015.0
20260902124600 24 189 0.0 0.0 0.00 0.00 0.00 95 1015.0
20260902124059 24 188 3.2 3.2 0.00 0.00 0.00 95 1015.0
20260902123555 24 188 0.0 0.0 0.00 0.00 0.00 95 1015.0
20260902123050 24 189 0.0 0.0 0.00 0.00 0.00 95 1015.0
20260902122549 24 189 0.0 0.0 0.00 0.00 0.00 95 1015.0
20260902122045 23 189 0.0 0.0 0.00 0.00 0.00 95 1015.0
20260902121545 23 189 0.0 0.0 0.00 0.00 0.00 96 1015.0
20260902121040 23 189 0.0 0.0 0.00 0.00 0.00 97 1015.0
20260902120536 23 189 0.0 0.0 0.00 0.00 0.00 97 1015.0
20260902120032 23 189 0.0 0.0 0.00 0.00 0.00 97 1015.0
20260902115532 23 189 0.0 0.0 0.00 0.00 0.00 97 1015.0
20260902115029 23 189 3.2 3.2 0.00 0.00 0.00 98 1015.0
20260902114525 23 189 0.0 0.0 0.00 0.00 0.00 98 1014.7
20260902114024 23 189 0.0 0.0 0.00 0.00 0.00 98 1014.7
20260902113520 23 189 0.0 0.0 0.00 0.00 0.00 98 1014.7
20260902113015 22 189 4.8 4.8 0.00 0.00 0.00 99 1014.7
20260902112510 22 189 0.0 0.0 0.00 0.00 0.00 99 1014.7
20260902112007 22 189 0.0 0.0 0.00 0.00 0.00 99 1014.7
20260902111503 22 189 0.0 0.0 0.00 0.00 0.00 99 1014.7
20260902110958 22 189 0.0 0.0 0.00 0.00 0.00 99 1014.7
20260902110454 22 188 0.0 0.0 0.00 0.00 0.00 99 1014.7
20260902105949 22 189 0.0 0.0 0.00 0.00 0.00 99 1014.7
20260902105444 22 189 0.0 0.0 0.00 0.00 0.00 99 1014.7
20260902104939 22 189 0.0 0.0 0.00 0.00 0.00 99 1014.7
20260902104435 22 189 0.0 0.0 0.00 0.00 0.00 99 1014.7
20260902103934 22 189 0.0 0.0 0.00 0.00 0.00 99 1014.7
20260902103430 22 189 0.0 0.0 0.00 0.00 0.00 99 1014.7
20260902102925 22 188 0.0 0.0 0.00 0.00 0.00 99 1014.4
20260902102422 22 188 0.0 0.0 0.00 0.00 0.00 99 1014.4
20260902101918 22 188 0.0 0.0 0.00 0.00 0.00 99 1014.4
20260902101412 22 189 0.0 0.0 0.00 0.00 0.00 99 1014.7
20260902100912 22 188 0.0 0.0 0.00 0.00 0.00 99 1014.7
20260902100412 22 189 0.0 0.0 0.00 0.00 0.00 99 1014.7
20260902095906 22 188 0.0 0.0 0.00 0.00 0.00 99 1014.7
20260902095401 22 188 0.0 0.0 0.00 0.00 0.00 99 1014.7
20260902094900 22 189 0.0 0.0 0.00 0.00 0.00 99 1014.7
20260902094357 22 188 0.0 0.0 0.00 0.00 0.00 99 1014.7
20260902093856 22 188 0.0 0.0 0.00 0.00 0.00 99 1014.7
20260902093352 22 189 0.0 0.0 0.00 0.00 0.00 99 1014.7
20260902092850 22 189 0.0 0.0 0.00 0.00 0.00 99 1014.7
20260902092347 22 189 0.0 0.0 0.00 0.00 0.00 99 1014.7
20260902091847 22 188 0.0 0.0 0.00 0.00 0.00 99 1014.7
20260902091342 22 189 0.0 0.0 0.00 0.00 0.00 99 1014.7
20260902090839 22 189 0.0 0.0 0.00 0.00 0.00 99 1014.7
20260902090338 22 188 0.0 0.0 0.00 0.00 0.00 99 1014.7
20260902085837 22 189 0.0 0.0 0.00 0.00 0.00 99 1014.7
20260902085332 22 189 0.0 0.0 0.00 0.00 0.00 99 1014.7
20260902084828 22 189 0.0 0.0 0.00 0.00 0.00 99 1014.7
20260902084325 22 189 0.0 0.0 0.00 0.00 0.00 99 1014.7
20260902083820 22 189 0.0 0.0 0.00 0.00 0.00 99 1014.7
20260902083319 22 189 0.0 0.0 0.00 0.00 0.00 99 1014.7
20260902082814 22 189 0.0 0.0 0.00 0.00 0.00 99 1014.7
20260902082311 22 189 0.0 0.0 0.00 0.00 0.00 99 1014.7
20260902081807 22 189 0.0 0.0 0.00 0.00 0.00 99 1014.7
20260902081302 22 188 0.0 0.0 0.00 0.00 0.00 99 1014.7
20260902080757 22 189 0.0 0.0 0.00 0.00 0.00 99 1014.7
20260902080254 22 188 0.0 0.0 0.00 0.00 0.00 99 1014.7
20260902075753 22 189 0.0 0.0 0.00 0.00 0.00 99 1014.0
20260902075250 22 189 0.0 0.0 0.00 0.00 0.00 99 1014.0
20260902074749 22 188 0.0 0.0 0.00 0.00 0.00 99 1014.0
20260902074245 22 189 0.0 0.0 0.00 0.00 0.00 99 1014.4
20260902073740 22 189 0.0 0.0 0.00 0.00 0.00 99 1014.4
20260902073236 22 189 0.0 0.0 0.00 0.00 0.00 99 1014.4
20260902072732 22 189 0.0 0.0 0.00 0.00 0.00 99 1014.0
20260902072228 22 189 0.0 0.0 0.00 0.00 0.00 99 1014.0
20260902071724 22 189 0.0 0.0 0.00 0.00 0.00 99 1014.0
20260902071219 22 189 0.0 0.0 0.00 0.00 0.00 99 1014.0
20260902070715 22 189 0.0 0.0 0.00 0.00 0.00 99 1014.0
20260902070214 22 189 3.2 3.2 0.00 0.00 0.00 99 1014.0
20260902065713 22 189 0.0 0.0 0.00 0.00 0.00 99 1014.4
20260902065209 22 188 0.0 0.0 0.00 0.00 0.00 99 1014.4
20260902064704 22 189 0.0 0.0 0.00 0.00 0.00 99 1014.4
20260902064201 22 188 0.0 0.0 0.00 0.00 0.00 99 1014.7
20260902063656 22 188 0.0 0.0 0.00 0.00 0.00 99 1014.7
20260902063156 21 188 0.0 0.0 0.00 0.00 0.00 99 1014.7
20260902062655 21 188 0.0 0.0 0.00 0.00 0.00 99 1014.4
20260902062150 21 188 0.0 0.0 0.00 0.00 0.00 99 1014.4
20260902061649 21 188 0.0 0.0 0.00 0.00 0.00 99 1014.4
20260902061145 21 188 0.0 0.0 0.00 0.00 0.00 99 1014.7
20260902060642 21 188 0.0 0.0 0.00 0.00 0.00 99 1014.7
20260902060138 21 188 0.0 0.0 0.00 0.00 0.00 99 1014.7
20260902055633 21 188 0.0 0.0 0.00 0.00 0.00 99 1014.7
20260902055129 21 188 0.0 0.0 0.00 0.00 0.00 99 1014.7
20260902054624 21 188 0.0 0.0 0.00 0.00 0.00 99 1014.7
20260902054120 21 188 0.0 0.0 0.00 0.00 0.00 99 1014.7
20260902053614 22 188 0.0 0.0 0.00 0.00 0.00 99 1014.7
20260902053109 22 188 0.0 0.0 0.00 0.00 0.00 99 1014.7
20260902052609 22 188 0.0 0.0 0.00 0.00 0.00 99 1014.7
20260902052104 22 188 0.0 0.0 0.00 0.00 0.00 98 1014.7
20260902051604 22 188 0.0 0.0 0.00 0.00 0.00 98 1014.7
20260902051104 22 188 0.0 0.0 0.00 0.00 0.00 98 1014.7
20260902050603 22 188 0.0 0.0 0.00 0.00 0.00 98 1014.7
20260902050059 22 188 0.0 0.0 0.00 0.00 0.00 99 1014.4
20260902045554 22 188 0.0 0.0 0.00 0.00 0.00 98 1014.4
20260902045051 22 188 0.0 0.0 0.00 0.00 0.00 98 1014.4
20260902044550 22 189 0.0 0.0 0.00 0.00 0.00 98 1014.4
20260902044046 22 189 0.0 0.0 0.00 0.00 0.00 98 1014.4